Canby, MN

10:35 AM CDT on May 29, 2017 (GMT -0500)
Canby

Weather History for KCNB - October, 2012

Change the Weather History Date:

Sunday, October 28, 2012

  Actual Average (KMML) Record (KMML)
Temperature  
Mean Temperature 39 °F -  
Max Temperature 48 °F 54 °F 77 °F (2016)
Min Temperature 30 °F 31 °F 10 °F (1967)
Degree Days  
Heating Degree Days 26    
Moisture  
Dew Point 31 °F    
Average Humidity 79    
Maximum Humidity 96    
Minimum Humidity 51    
Precipitation  
Precipitation 0.00 in - - ()
Sea Level Pressure  
Sea Level Pressure 30.22 in    
Wind  
Wind Speed 4 mph (SE)    
Max Wind Speed 13 mph    
Max Gust Speed 20 mph    
Visibility 10 miles    
Events      
Averages and records for this station are not official NWS values.
T = Trace of Precipitation, MM = Missing Value Source: NWS Daily Summary

Daily Weather History Graph

Daily Weather History Graph

Search for Another Location

Airport or City:

Trip Planner

Search our weather history database for the weather conditions in past years. The results will help you decide how hot, cold, wet, or windy it might be!

Date:

Astronomy

Oct. 28, 2012 Rise Set
Actual Time 7:58 AM CDT 6:18 PM CDT
Civil Twilight 7:28 AM CDT 6:48 PM CDT
Nautical Twilight 6:53 AM CDT 7:23 PM CDT
Astronomical Twilight 6:19 AM CDT 7:57 PM CDT
Moon 5:37 PM CDT (10/28) 6:51 AM CDT (10/28)
Length of Visible Light 11h 20m
Length of Day
10h 20m
Waxing Gibbous, 99% of the Moon is Illuminated
Oct 28
Waxing Gibbous
Oct 29
Full
Nov 6
Last Quarter
Nov 13
New
Nov 20
First Quarter

Hourly Weather History & Observations

Time (CDT) Temp. Windchill Dew Point Humidity Pressure Visibility Wind Dir Wind Speed Gust Speed Precip Events Conditions
12:15 AM 33.8 °F 29.6 °F 30.9 °F 89% 30.27 in 10.0 mi SE 4.6 mph - N/A   Overcast
12:34 AM 34.2 °F 30.0 °F 30.9 °F 88% 30.27 in 10.0 mi SSE 4.6 mph - N/A   Overcast
12:54 AM 34.0 °F 31.0 °F 30.7 °F 88% 30.26 in 10.0 mi SE 3.5 mph - N/A   Overcast
1:15 AM 33.8 °F - 30.7 °F 89% 30.26 in 10.0 mi Calm Calm - N/A   Overcast
1:34 AM 33.8 °F - 31.1 °F 90% 30.26 in 10.0 mi Calm Calm - N/A   Overcast
1:54 AM 33.3 °F - 31.1 °F 92% 30.27 in 10.0 mi Calm Calm - N/A   Overcast
2:15 AM 33.3 °F 30.2 °F 31.1 °F 92% 30.26 in 10.0 mi ENE 3.5 mph - N/A   Overcast
2:34 AM 33.8 °F - 31.1 °F 90% 30.26 in 10.0 mi Calm Calm - N/A   Overcast
2:55 AM 33.6 °F 30.6 °F 31.3 °F 91% 30.26 in 10.0 mi ESE 3.5 mph - N/A   Overcast
3:14 AM 33.8 °F - 31.8 °F 92% 30.26 in 10.0 mi Calm Calm - N/A   Overcast
3:35 AM 33.8 °F - 32.0 °F 93% 30.25 in 10.0 mi Calm Calm - N/A   Overcast
3:55 AM 34.2 °F 31.2 °F 31.6 °F 90% 30.25 in 10.0 mi ESE 3.5 mph - N/A   Overcast
4:15 AM 34.2 °F 31.2 °F 31.6 °F 90% 30.25 in 10.0 mi SE 3.5 mph - N/A   Overcast
4:34 AM 34.0 °F - 31.6 °F 91% 30.25 in 10.0 mi Calm Calm - N/A   Overcast
4:55 AM 33.8 °F 30.8 °F 31.5 °F 91% 30.25 in 10.0 mi SE 3.5 mph - N/A   Overcast
5:14 AM 33.8 °F 30.8 °F 31.5 °F 91% 30.25 in 10.0 mi SE 3.5 mph - N/A   Overcast
5:35 AM 33.4 °F - 31.5 °F 92% 30.25 in 10.0 mi Calm Calm - N/A   Overcast
5:55 AM 33.4 °F 30.4 °F 31.6 °F 93% 30.25 in 10.0 mi ESE 3.5 mph - N/A   Overcast
6:15 AM 33.3 °F - 31.3 °F 92% 30.25 in 10.0 mi Calm Calm - N/A   Overcast
6:34 AM 32.7 °F 29.6 °F 31.1 °F 94% 30.25 in 10.0 mi ESE 3.5 mph - N/A   Overcast
6:55 AM 32.0 °F 27.5 °F 30.2 °F 93% 30.25 in 10.0 mi SE 4.6 mph - N/A   Scattered Clouds
7:14 AM 31.1 °F - 29.8 °F 95% 30.25 in 10.0 mi Calm Calm - N/A   Clear
7:34 AM 31.1 °F - 30.0 °F 96% 30.26 in 10.0 mi Calm Calm - N/A   Clear
7:55 AM 30.7 °F - 29.7 °F 96% 30.27 in 10.0 mi Calm Calm - N/A   Scattered Clouds
8:15 AM 30.6 °F - 29.1 °F 94% 30.27 in 10.0 mi Calm Calm - N/A   Mostly Cloudy
8:34 AM 30.9 °F - 29.5 °F 94% 30.27 in 10.0 mi Calm Calm - N/A   Scattered Clouds
8:54 AM 31.3 °F - 30.0 °F 95% 30.27 in 10.0 mi Calm Calm - N/A   Mostly Cloudy
9:15 AM 32.0 °F - 30.9 °F 96% 30.27 in 10.0 mi Calm Calm - N/A   Mostly Cloudy
10:14 AM 36.3 °F 33.7 °F 31.5 °F 83% 30.26 in 10.0 mi ESE 3.5 mph - N/A   Mostly Cloudy
10:35 AM 37.4 °F 34.9 °F 31.5 °F 79% 30.26 in 10.0 mi SE 3.5 mph - N/A   Clear
10:55 AM 39.2 °F 35.9 °F 31.8 °F 75% 30.25 in 10.0 mi ESE 4.6 mph - N/A   Scattered Clouds
11:15 AM 39.7 °F 36.5 °F 32.0 °F 74% 30.25 in 10.0 mi ESE 4.6 mph - N/A   Mostly Cloudy
11:35 AM 41.5 °F 38.6 °F 32.2 °F 69% 30.24 in 10.0 mi East 4.6 mph - N/A   Mostly Cloudy
11:54 AM 42.4 °F 38.1 °F 31.1 °F 64% 30.24 in 10.0 mi SSW 6.9 mph - N/A   Mostly Cloudy
12:15 PM 43.2 °F 37.9 °F 31.5 °F 63% 30.23 in 10.0 mi South 9.2 mph - N/A   Scattered Clouds
12:35 PM 43.2 °F 39.7 °F 31.3 °F 63% 30.23 in 10.0 mi South 5.8 mph - N/A   Mostly Cloudy
12:55 PM 44.2 °F 39.2 °F 31.1 °F 60% 30.22 in 10.0 mi SSE 9.2 mph - N/A   Mostly Cloudy
1:15 PM 44.6 °F 40.7 °F 31.3 °F 60% 30.21 in 10.0 mi South 6.9 mph - N/A   Mostly Cloudy
1:35 PM 46.0 °F 41.4 °F 31.1 °F 56% 30.20 in 10.0 mi South 9.2 mph - N/A   Scattered Clouds
1:54 PM 46.6 °F - 31.1 °F 55% 30.20 in 10.0 mi South 10.4 mph - N/A   Scattered Clouds
2:14 PM 47.1 °F - 31.3 °F 54% 30.20 in 10.0 mi South 11.5 mph 19.6 mph N/A   Scattered Clouds
2:35 PM 47.3 °F - 31.5 °F 54% 30.19 in 10.0 mi South 6.9 mph - N/A   Scattered Clouds
2:54 PM 47.3 °F - 31.3 °F 54% 30.18 in 10.0 mi South 10.4 mph 17.3 mph N/A   Scattered Clouds
3:14 PM 47.8 °F - 31.5 °F 53% 30.18 in 10.0 mi South 8.1 mph 16.1 mph N/A   Scattered Clouds
3:35 PM 48.6 °F - 32.0 °F 53% 30.17 in 10.0 mi SSE 12.7 mph - N/A   Scattered Clouds
3:54 PM 48.9 °F - 31.3 °F 51% 30.17 in 10.0 mi South 11.5 mph 17.3 mph N/A   Scattered Clouds
4:15 PM 48.2 °F - 32.0 °F 54% 30.17 in 10.0 mi South 9.2 mph - N/A   Mostly Cloudy
4:34 PM 48.2 °F - 32.0 °F 54% 30.17 in 10.0 mi SSE 9.2 mph - N/A   Overcast
4:55 PM 48.2 °F - 32.0 °F 54% 30.17 in 10.0 mi SSE 9.2 mph - N/A   Overcast
5:15 PM 47.7 °F - 32.0 °F 55% 30.17 in 10.0 mi South 5.8 mph - N/A   Overcast
5:34 PM 47.3 °F - 32.0 °F 55% 30.17 in 10.0 mi South 8.1 mph - N/A   Mostly Cloudy
5:55 PM 46.4 °F 42.9 °F 32.2 °F 58% 30.17 in 10.0 mi SSE 6.9 mph - N/A   Mostly Cloudy
6:15 PM 43.7 °F 39.7 °F 32.4 °F 64% 30.17 in 10.0 mi SE 6.9 mph - N/A   Scattered Clouds
6:35 PM 40.6 °F 36.7 °F 32.0 °F 71% 30.18 in 10.0 mi SSE 5.8 mph - N/A   Clear
6:54 PM 40.8 °F 36.9 °F 32.7 °F 73% 30.17 in 10.0 mi SSE 5.8 mph - N/A   Scattered Clouds
7:15 PM 39.9 °F 35.8 °F 32.5 °F 75% 30.17 in 10.0 mi SE 5.8 mph - N/A   Scattered Clouds
7:34 PM 38.3 °F 33.9 °F 32.0 °F 78% 30.18 in 10.0 mi SE 5.8 mph - N/A   Clear
7:55 PM 37.8 °F 32.5 °F 32.0 °F 80% 30.18 in 10.0 mi SE 6.9 mph - N/A   Clear
8:35 PM 35.6 °F 29.9 °F 32.0 °F 87% 30.18 in 10.0 mi SE 6.9 mph - N/A   Clear
8:55 PM 35.6 °F 29.9 °F 31.8 °F 86% 30.18 in 10.0 mi SE 6.9 mph - N/A   Clear
9:14 PM 34.2 °F 29.0 °F 31.1 °F 89% 30.18 in 10.0 mi SE 5.8 mph - N/A   Clear
9:34 PM 33.4 °F 27.3 °F 30.9 °F 90% 30.18 in 10.0 mi SE 6.9 mph - N/A   Clear
9:55 PM 33.1 °F 27.7 °F 30.9 °F 92% 30.18 in 10.0 mi SE 5.8 mph - N/A   Clear
10:14 PM 32.9 °F 26.7 °F 31.1 °F 93% 30.19 in 10.0 mi SE 6.9 mph - N/A   Clear
10:35 PM 32.7 °F 26.4 °F 31.1 °F 94% 30.19 in 10.0 mi SE 6.9 mph - N/A   Clear
10:55 PM 33.4 °F 27.3 °F 31.6 °F 93% 30.19 in 10.0 mi SE 6.9 mph - N/A   Clear
11:14 PM 33.6 °F 26.8 °F 31.6 °F 92% 30.19 in 10.0 mi SE 8.1 mph - N/A   Clear
11:35 PM 33.4 °F 26.6 °F 31.5 °F 92% 30.19 in 10.0 mi SE 8.1 mph - N/A   Scattered Clouds
11:55 PM 32.9 °F 26.7 °F 31.5 °F 94% 30.18 in 10.0 mi SE 6.9 mph - N/A   Scattered Clouds